Regional Weather Roundup
Issued by NWS Upton, NY

Current Version | Previous Version | Text Only | Print | Product List | Glossary On
Versions: 1 2 3 4 5 6 7 8 9 10 11 12 13 14 15 16 17 18 19 20 21 22 23 24 25 26 27 28 29 30 31 32 33 34 35 36 37 38 39 40 41 42 43 44 45 46 47 48 49 50
000 ASUS41 KOKX 101204 RWROKX REGIONAL WEATHER ROUNDUP NATIONAL WEATHER SERVICE NEW YORK NY 700 AM EST WED FEB 10 2016 NOTE: "FAIR" INDICATES FEW OR NO CLOUDS BELOW 12,000 FEET WITH NO SIGNIFICANT WEATHER AND/OR OBSTRUCTIONS TO VISIBILITY. NYZ071-072-176-178-NJZ106-104-101300- NEW YORK CITY METRO AREA CITY SKY/WX TMP DP RH WIND PRES REMARKS CENTRAL PARK CLOUDY 33 27 78 W7 29.62R WCI 27 LAGUARDIA APRT CLOUDY 35 28 75 SW6 29.60R WCI 30 KENNEDY INTL CLOUDY 35 28 75 W10 29.62R WCI 27 NEWARK/LIBERTY LGT SNOW 33 30 88 SW10 29.61R FOG WCI 25 BRNX BOT. GARD N/A 34 30 86 SE2 29.61R TETERBORO LGT SNOW 33 28 81 SW5 29.59S WCI 29 $$ NYZ177-179-078>081-101300- LONG ISLAND NEW YORK CITY SKY/WX TMP DP RH WIND PRES REMARKS FARMINGDALE CLOUDY 32 29 88 CALM 29.60S FOG ISLIP CLOUDY 30 27 88 CALM 29.58S FOG SHIRLEY CLOUDY 27 25 92 CALM 29.61R RIVERHEAD N/A 28 23 80 CALM 29.57 WESTHAMPTON CLOUDY 27 27 100 CALM 29.61S EAST HAMPTON LGT SNOW 27 26 96 CALM 29.60S MONTAUK POINT N/A 29 28 96 CALM 29.61S $$ NYZ052-065-067-101300- HUDSON VALLEY CITY SKY/WX TMP DP RH WIND PRES REMARKS WHITE PLAINS FOG 30 29 96 CALM 29.57S VSB 1 NEWBURGH LGT SNOW 30 30 100 CALM 29.56S FOG MONTGOMERY CLOUDY 31 29 92 SW6 29.56R FOG WCI 25 POUGHKEEPSIE CLOUDY 31 28 89 CALM 29.57S ALBANY LGT SNOW 29 25 85 S6 29.56R FOG WCI 23 $$ NJZ001-105-106-008-010-013-015-019>022-104-101300- NEW JERSEY CITY SKY/WX TMP DP RH WIND PRES REMARKS NEWARK/LIBERTY LGT SNOW 33 30 88 SW10 29.61R FOG WCI 25 TETERBORO LGT SNOW 33 28 81 SW5 29.59S WCI 29 CALDWELL LGT SNOW 31 28 89 SW3 29.60S FOG MORRISTOWN CLOUDY 30 30 100 SW3 29.61R SOMERVILLE CLOUDY 32 29 88 VRB3 29.60R FOG SUSSEX MIX PCPN 30 27 88 SW5 29.57R WCI 25 ANDOVER N/A 30 28 92 CALM 29.58R TRENTON LGT SNOW 30 27 88 W8 29.63R FOG WCI 22 MILLVILLE LGT SNOW 30 27 88 W13 29.68R FOG WCI 20 ATLANTIC CITY LGT SNOW 31 27 85 W14 29.66R FOG WCI 21 WRIGHTSTOWN FLURRIES 32 32 100 W9 29.62R WCI 24 TOMS RIVER CLOUDY 30 28 93 W9 29.63S WCI 22 BELMAR CLOUDY 30 25 80 W7 29.61R WCI 23 $$ PAZ047>061-062-071-101300- EASTERN PENNSYLVANIA CITY SKY/WX TMP DP RH WIND PRES REMARKS PHILADELPHIA LGT SNOW 31 26 82 W12 29.68R WCI 22 ALLENTOWN CLOUDY 30 25 81 SW8 29.62R WCI 22 SCRANTON CLOUDY 28 24 85 SW9 29.57R WCI 19 $$ CTZ002-004>006-009-010-012-RIZ004-006-007-MAZ004-011-015-101300- SOUTHERN NEW ENGLAND IN CT CITY SKY/WX TMP DP RH WIND PRES REMARKS BRADLEY INTL LGT SNOW 26 24 92 S3 29.58S VSB 1 HARTFORD LGT SNOW 28 26 92 CALM 29.60S FOG DANBURY CLOUDY 29 24 82 S3 29.58S WTRBRY/OXFORD LGT SNOW 28 19 69 CALM 29.57R VSB 1 BRIDGEPORT LGT SNOW 32 30 92 SW3 29.60S FOG MERIDEN LGT SNOW 27 24 89 CALM 29.60S FOG NEW HAVEN LGT SNOW 29 27 92 CALM 29.59F FOG CHESTER LGT SNOW 28 28 100 CALM 29.59S GROTON LGT SNOW 26 26 100 N3 29.61S FOG WILLIMANTIC LGT SNOW 21 17 84 CALM 29.61S FOG IN RI CITY SKY/WX TMP DP RH WIND PRES REMARKS PROVIDENCE LGT SNOW 25 21 85 CALM 29.62S FOG BLOCK ISLAND CLOUDY 32 30 93 E3 29.59S WESTERLY LGT SNOW 25 22 88 N3 29.61S FOG IN MA CITY SKY/WX TMP DP RH WIND PRES REMARKS BOSTON CLOUDY 27 20 75 S5 29.62S WCI 22 WORCESTER LGT SNOW 22 20 92 SW8 29.54S FOG WCI 12 WESTFIELD LGT SNOW 23 21 92 CALM 29.58S VSB 1 PROVINCETOWN CLOUDY 25 21 85 CALM 29.64R NANTUCKET CLOUDY 31 26 82 NE3 29.62R $$ ANZ330-335-338-340-345-350-353-355-101300- COASTAL MARINE OBSERVATIONS STATION/POSITION TIME SKY/WX TEMP WIND PRES VSBY WAVE AIR SEA DIR/SP/G HT/PER (UTC) (F) (DEG/KT/KT) (MB) (MI) (FT/S) NY HARB ENTRANCE 1050 35 43 270/ 10/ 12 1001.8 4/13 4S FIRE IS NOT AVBL 20S FIRE ISLAND 1050 35 44 330/ 4/ 6 1002.0 4/10 GREAT SOUTH BAY NOT AVBL 23SW MTP 1150 35 45 140/ 6/ 8 1001.7 4/11 HUDSON CANYON 1050 40 49 1000.9 5/10 KINGS POINT 1100 34 38 270/ 9/ 10 1001.6 EXECUTION ROCKS NOT AVBL CENTRAL LI SOUND 1100 32 200/ 4/ 6 N/A 0 EASTERN LI SOUND 1100 32 42 50/ 4/ 6 N/A ROBBINS REEF 1100 33 250/ 10/ 11 1001.5 $$ >>>>>>>>>>>>>>>>>>>>>>>>>>>> KEY <<<<<<<<<<<<<<<<<<<<<<<<<<< > < > SKY/WX - SKY CONDITION/PRESENT WEATHER < > TMP - TEMPERATURE IN FAHRENHEIT < > DP - DEWPOINT IN FAHRENHEIT < > RH - RELATIVE HUMIDITY IN PERCENT < > WIND - DIRECTION AND SPEED IN MPH < > PRES - MEAN SEA LEVEL PRESSURE IN INCHES OF HG < > WCI - WIND CHILL INDEX < > VSB - VISIBILITY IN MILES < > HX - HEAT INDEX < > TC - TEMPERATURE IN CELSIUS < > VRB - VARIABLE WIND DIRECTION < > < >>>>>>>>>>>>>>>>>>>>>>>>>>>> KEY <<<<<<<<<<<<<<<<<<<<<<<<<<<

USA.gov is the U.S. government's official web portal to all federal, state and local government web resources and services.